WZZ12J EPKK-LJLJ

Flight info

Callsign WZZ12J
Flight time 1h 3m
Altitude 38000
Route BABKO DCT ORTYN DCT ABLOM DCT NIGSI DCT RADLY
Aircraft A21N/M-SDE2E3FGHIRWXY/LB1

Departure

Time 2026-05-08 08:06
Airport Kraków John Paul II International Airport (EPKK)

Arrival

Time 2026-05-08 09:10
Airport Ljubljana Jože Pučnik Airport (LJLJ)
Time Latitude Longitude Altitude Speed Heading
2026-05-08 07:47 50.07707 19.80280 799 ft 0 kts 347°
2026-05-08 08:02 50.07709 19.80279 800 ft 1 kts 347°
2026-05-08 08:03 50.07731 19.80271 800 ft 4 kts 347°
2026-05-08 08:03 50.07764 19.80287 800 ft 6 kts 53°
2026-05-08 08:03 50.07803 19.80337 800 ft 8 kts 13°
2026-05-08 08:03 50.07869 19.80325 800 ft 10 kts 349°
2026-05-08 08:04 50.07947 19.80301 800 ft 12 kts 349°
2026-05-08 08:04 50.08011 19.80250 800 ft 10 kts 300°
2026-05-08 08:04 50.08008 19.80171 800 ft 0 kts 255°
2026-05-08 08:05 50.07949 19.79766 800 ft 81 kts 258°
2026-05-08 08:05 50.07776 19.78516 801 ft 151 kts 257°
2026-05-08 08:06 50.07528 19.76778 1281 ft 168 kts 259°
2026-05-08 08:06 50.07304 19.75072 2214 ft 161 kts 259°
2026-05-08 08:06 50.07090 19.73439 3008 ft 156 kts 260°
2026-05-08 08:06 50.06868 19.71798 3628 ft 158 kts 259°
2026-05-08 08:07 50.06636 19.70134 4200 ft 164 kts 258°
2026-05-08 08:07 50.06381 19.68305 4610 ft 184 kts 259°
2026-05-08 08:07 50.06049 19.66301 5047 ft 203 kts 247°
2026-05-08 08:07 50.05015 19.64671 5425 ft 227 kts 206°
2026-05-08 08:08 50.03381 19.64355 5807 ft 254 kts 171°
2026-05-08 08:08 50.01594 19.64983 6407 ft 271 kts 167°
2026-05-08 08:08 49.99750 19.65718 7191 ft 280 kts 167°
2026-05-08 08:08 49.97865 19.66437 8201 ft 281 kts 168°
2026-05-08 08:09 49.95958 19.67112 9132 ft 284 kts 170°
2026-05-08 08:09 49.94056 19.67735 10080 ft 285 kts 170°
2026-05-08 08:09 49.92104 19.68400 10868 ft 293 kts 170°
2026-05-08 08:09 49.90056 19.69093 11355 ft 310 kts 172°
2026-05-08 08:10 49.87875 19.69172 11949 ft 318 kts 191°
2026-05-08 08:10 49.85788 19.68141 12760 ft 318 kts 208°
2026-05-08 08:10 49.83842 19.66524 13593 ft 321 kts 211°
2026-05-08 08:10 49.81905 19.64838 14361 ft 325 kts 212°
2026-05-08 08:11 49.79911 19.63099 15141 ft 330 kts 212°
2026-05-08 08:11 49.77925 19.61376 15911 ft 333 kts 212°
2026-05-08 08:11 49.75882 19.59609 16638 ft 337 kts 212°
2026-05-08 08:11 49.73848 19.57856 17339 ft 341 kts 212°
2026-05-08 08:12 49.71771 19.56068 18040 ft 345 kts 212°
2026-05-08 08:12 49.69654 19.54250 18744 ft 349 kts 213°
2026-05-08 08:12 49.67537 19.52434 19460 ft 352 kts 213°
2026-05-08 08:12 49.65380 19.50587 20154 ft 355 kts 213°
2026-05-08 08:13 49.63234 19.48753 20807 ft 359 kts 213°
2026-05-08 08:13 49.61046 19.46886 21465 ft 362 kts 212°
2026-05-08 08:13 49.58792 19.45060 22103 ft 366 kts 211°
2026-05-08 08:13 49.56525 19.43278 22722 ft 370 kts 211°
2026-05-08 08:14 49.54243 19.41489 23338 ft 373 kts 211°
2026-05-08 08:14 49.51920 19.39667 23956 ft 376 kts 211°
2026-05-08 08:14 49.49585 19.37831 24522 ft 378 kts 211°
2026-05-08 08:14 49.47234 19.35979 25070 ft 381 kts 211°
2026-05-08 08:15 49.44906 19.34145 25595 ft 383 kts 211°
2026-05-08 08:15 49.42531 19.32266 26093 ft 386 kts 211°
2026-05-08 08:15 49.40140 19.30377 26596 ft 388 kts 211°
2026-05-08 08:15 49.37752 19.28499 27080 ft 390 kts 211°
2026-05-08 08:16 49.35299 19.26576 27549 ft 392 kts 211°
2026-05-08 08:16 49.32935 19.24519 27977 ft 391 kts 217°
2026-05-08 08:16 49.30768 19.22055 28413 ft 390 kts 224°
2026-05-08 08:16 49.28812 19.19190 28841 ft 389 kts 230°
2026-05-08 08:17 49.27032 19.16086 29264 ft 390 kts 232°
2026-05-08 08:17 49.25266 19.12921 29670 ft 391 kts 232°
2026-05-08 08:17 49.23517 19.09779 30046 ft 393 kts 233°
2026-05-08 08:17 49.21741 19.06594 30397 ft 395 kts 232°
2026-05-08 08:18 49.19946 19.03381 30608 ft 400 kts 233°
2026-05-08 08:18 49.18149 19.00170 30917 ft 403 kts 233°
2026-05-08 08:18 49.16306 18.96883 31233 ft 404 kts 233°
2026-05-08 08:18 49.14485 18.93641 31519 ft 406 kts 233°
2026-05-08 08:19 49.12637 18.90354 31820 ft 408 kts 233°
2026-05-08 08:19 49.10794 18.87085 32176 ft 407 kts 232°
2026-05-08 08:19 49.08953 18.83823 32566 ft 405 kts 232°
2026-05-08 08:19 49.07147 18.80624 32948 ft 403 kts 232°
2026-05-08 08:20 49.05315 18.77382 33294 ft 402 kts 232°
2026-05-08 08:20 49.03488 18.74160 33597 ft 401 kts 233°
2026-05-08 08:20 49.01687 18.70984 33891 ft 400 kts 233°
2026-05-08 08:20 48.99870 18.67784 34176 ft 399 kts 233°
2026-05-08 08:21 48.98051 18.64581 34433 ft 398 kts 233°
2026-05-08 08:21 48.96258 18.61427 34685 ft 398 kts 233°
2026-05-08 08:21 48.94453 18.58257 34905 ft 398 kts 232°
2026-05-08 08:21 48.92627 18.55053 35118 ft 398 kts 232°
2026-05-08 08:22 48.90810 18.51874 35348 ft 398 kts 232°
2026-05-08 08:22 48.89012 18.48733 35553 ft 398 kts 232°
2026-05-08 08:22 48.87174 18.45546 35744 ft 399 kts 232°
2026-05-08 08:22 48.85355 18.42397 35935 ft 400 kts 232°
2026-05-08 08:23 48.83520 18.39214 36132 ft 400 kts 232°
2026-05-08 08:23 48.81709 18.36073 36321 ft 400 kts 232°
2026-05-08 08:23 48.79865 18.32871 36491 ft 401 kts 231°
2026-05-08 08:23 48.78028 18.29671 36629 ft 403 kts 231°
2026-05-08 08:24 48.76196 18.26485 36753 ft 405 kts 231°
2026-05-08 08:24 48.74339 18.23262 36880 ft 406 kts 231°
2026-05-08 08:24 48.72494 18.20066 37048 ft 407 kts 231°
2026-05-08 08:24 48.70626 18.16835 37178 ft 408 kts 231°
2026-05-08 08:25 48.68764 18.13618 37320 ft 409 kts 231°
2026-05-08 08:25 48.66894 18.10393 37453 ft 410 kts 231°
2026-05-08 08:25 48.65005 18.07143 37572 ft 412 kts 231°
2026-05-08 08:25 48.63116 18.03898 37676 ft 413 kts 231°
2026-05-08 08:26 48.61219 18.00640 37704 ft 415 kts 231°
2026-05-08 08:26 48.59303 17.97356 37822 ft 416 kts 231°
2026-05-08 08:26 48.57403 17.94107 37977 ft 416 kts 230°
2026-05-08 08:27 48.53568 17.87548 38067 ft 419 kts 230°
2026-05-08 08:27 48.49719 17.80987 38079 ft 418 kts 230°
2026-05-08 08:28 48.45857 17.74418 38079 ft 417 kts 231°
2026-05-08 08:28 48.42024 17.67911 38089 ft 417 kts 231°
2026-05-08 08:29 48.38176 17.61396 38082 ft 416 kts 231°
2026-05-08 08:29 48.34327 17.54891 38081 ft 416 kts 231°
2026-05-08 08:30 48.30476 17.48406 38075 ft 416 kts 231°
2026-05-08 08:30 48.24710 17.38721 38084 ft 415 kts 231°
2026-05-08 08:31 48.20873 17.32288 38081 ft 415 kts 230°
2026-05-08 08:31 48.17032 17.25847 38076 ft 414 kts 230°
2026-05-08 08:32 48.13186 17.19431 38078 ft 414 kts 230°
2026-05-08 08:32 48.09332 17.13025 38079 ft 414 kts 230°
2026-05-08 08:33 48.05452 17.06758 38073 ft 414 kts 228°
2026-05-08 08:33 48.01445 17.00607 38086 ft 413 kts 228°
2026-05-08 08:34 47.97434 16.94460 38090 ft 412 kts 228°
2026-05-08 08:34 47.93444 16.88362 38089 ft 412 kts 228°
2026-05-08 08:35 47.89462 16.82298 38091 ft 412 kts 228°
2026-05-08 08:35 47.85423 16.76206 38082 ft 412 kts 228°
2026-05-08 08:36 47.81403 16.70137 38096 ft 412 kts 228°
2026-05-08 08:36 47.77381 16.64061 38081 ft 412 kts 228°
2026-05-08 08:37 47.73394 16.58050 38092 ft 411 kts 228°
2026-05-08 08:37 47.69373 16.51995 38087 ft 411 kts 228°
2026-05-08 08:38 47.65370 16.45985 38073 ft 411 kts 228°
2026-05-08 08:38 47.61345 16.39954 38103 ft 411 kts 228°
2026-05-08 08:39 47.57347 16.33977 38091 ft 410 kts 227°
2026-05-08 08:39 47.53330 16.27958 38096 ft 410 kts 227°
2026-05-08 08:40 47.49344 16.22012 38077 ft 409 kts 227°
2026-05-08 08:40 47.45335 16.16052 38087 ft 409 kts 227°
2026-05-08 08:41 47.41309 16.10091 38077 ft 408 kts 227°
2026-05-08 08:41 47.37262 16.04252 38086 ft 410 kts 224°
2026-05-08 08:42 47.32832 15.98886 38089 ft 411 kts 221°
2026-05-08 08:42 47.28342 15.93669 38084 ft 411 kts 221°
2026-05-08 08:43 47.23860 15.88472 38072 ft 411 kts 221°
2026-05-08 08:43 47.19387 15.83294 38076 ft 410 kts 221°
2026-05-08 08:44 47.14898 15.78111 37944 ft 410 kts 221°
2026-05-08 08:44 47.12679 15.75556 37670 ft 407 kts 221°
2026-05-08 08:44 47.10463 15.73008 37323 ft 403 kts 221°
2026-05-08 08:45 47.08258 15.70476 36891 ft 399 kts 221°
2026-05-08 08:45 47.06066 15.67961 36403 ft 397 kts 221°
2026-05-08 08:45 47.03907 15.65484 35947 ft 398 kts 221°
2026-05-08 08:45 47.01724 15.62979 35367 ft 399 kts 221°
2026-05-08 08:46 46.99554 15.60495 34777 ft 401 kts 221°
2026-05-08 08:46 46.97335 15.57956 34027 ft 401 kts 222°
2026-05-08 08:46 46.95157 15.55467 33349 ft 400 kts 222°
2026-05-08 08:46 46.92978 15.52980 32708 ft 398 kts 222°
2026-05-08 08:47 46.90811 15.50509 32056 ft 397 kts 222°
2026-05-08 08:47 46.88617 15.48014 31306 ft 398 kts 222°
2026-05-08 08:47 46.86445 15.45559 30804 ft 393 kts 222°
2026-05-08 08:47 46.84321 15.43157 30338 ft 388 kts 222°
2026-05-08 08:48 46.82209 15.40765 29866 ft 384 kts 222°
2026-05-08 08:48 46.80113 15.38389 29385 ft 381 kts 222°
2026-05-08 08:48 46.78024 15.36020 28918 ft 377 kts 222°
2026-05-08 08:48 46.75954 15.33666 28449 ft 374 kts 221°
2026-05-08 08:49 46.73914 15.31346 27987 ft 372 kts 221°
2026-05-08 08:49 46.71894 15.29054 27506 ft 370 kts 221°
2026-05-08 08:49 46.69859 15.26754 27033 ft 367 kts 220°
2026-05-08 08:49 46.67846 15.24488 26577 ft 365 kts 219°
2026-05-08 08:50 46.65661 15.22656 26108 ft 369 kts 206°
2026-05-08 08:50 46.63168 15.21655 25615 ft 375 kts 192°
2026-05-08 08:50 46.60566 15.21579 25138 ft 380 kts 179°
2026-05-08 08:50 46.57919 15.21979 24674 ft 379 kts 177°
2026-05-08 08:51 46.55319 15.22428 24211 ft 378 kts 177°
2026-05-08 08:51 46.52698 15.22886 23746 ft 377 kts 177°
2026-05-08 08:51 46.50129 15.23330 23288 ft 375 kts 177°
2026-05-08 08:51 46.47508 15.23774 22852 ft 374 kts 176°
2026-05-08 08:52 46.44954 15.24205 22414 ft 373 kts 176°
2026-05-08 08:52 46.42376 15.24636 21967 ft 371 kts 176°
2026-05-08 08:52 46.39811 15.25064 21526 ft 370 kts 176°
2026-05-08 08:52 46.37264 15.25487 21061 ft 368 kts 176°
2026-05-08 08:53 46.34725 15.25908 20613 ft 367 kts 176°
2026-05-08 08:53 46.32209 15.26325 20175 ft 365 kts 176°
2026-05-08 08:53 46.29676 15.26745 19723 ft 363 kts 176°
2026-05-08 08:53 46.27188 15.27156 19279 ft 361 kts 175°
2026-05-08 08:54 46.24697 15.27567 18837 ft 358 kts 175°
2026-05-08 08:54 46.22248 15.27970 18402 ft 357 kts 175°
2026-05-08 08:54 46.19767 15.28379 17953 ft 355 kts 175°
2026-05-08 08:54 46.17346 15.28778 17515 ft 353 kts 175°
2026-05-08 08:55 46.14886 15.29183 17074 ft 351 kts 174°
2026-05-08 08:55 46.12490 15.29578 16634 ft 349 kts 174°
2026-05-08 08:55 46.10068 15.29978 16209 ft 347 kts 175°
2026-05-08 08:55 46.07700 15.30367 15796 ft 344 kts 175°
2026-05-08 08:56 46.05322 15.30757 15391 ft 342 kts 174°
2026-05-08 08:56 46.02970 15.31142 14974 ft 340 kts 174°
2026-05-08 08:56 46.00614 15.31527 14558 ft 338 kts 174°
2026-05-08 08:56 45.98273 15.31910 14135 ft 336 kts 174°
2026-05-08 08:57 45.95958 15.32288 13717 ft 335 kts 174°
2026-05-08 08:57 45.93653 15.32663 13292 ft 333 kts 174°
2026-05-08 08:57 45.91367 15.33036 12873 ft 331 kts 174°
2026-05-08 08:57 45.89089 15.33358 12444 ft 329 kts 179°
2026-05-08 08:58 45.86881 15.32768 12007 ft 325 kts 203°
2026-05-08 08:58 45.85025 15.30957 11574 ft 321 kts 226°
2026-05-08 08:58 45.83828 15.28313 11156 ft 318 kts 248°
2026-05-08 08:58 45.83423 15.25224 10736 ft 316 kts 270°
2026-05-08 08:59 45.83863 15.22145 10327 ft 314 kts 292°
2026-05-08 08:59 45.85009 15.19586 10209 ft 301 kts 308°
2026-05-08 08:59 45.86283 15.17282 10118 ft 288 kts 307°
2026-05-08 08:59 45.87507 15.15076 9909 ft 281 kts 307°
2026-05-08 09:00 45.88701 15.12873 9564 ft 279 kts 307°
2026-05-08 09:00 45.89864 15.10659 9225 ft 278 kts 306°
2026-05-08 09:00 45.91004 15.08438 8892 ft 276 kts 305°
2026-05-08 09:00 45.92125 15.06233 8566 ft 274 kts 305°
2026-05-08 09:01 45.93238 15.04036 8243 ft 272 kts 305°
2026-05-08 09:01 45.94338 15.01837 7928 ft 270 kts 304°
2026-05-08 09:01 45.95425 14.99598 7608 ft 269 kts 304°
2026-05-08 09:01 45.96480 14.97413 7289 ft 267 kts 304°
2026-05-08 09:02 45.97539 14.95218 6980 ft 265 kts 305°
2026-05-08 09:02 45.98582 14.93060 6679 ft 264 kts 305°
2026-05-08 09:02 45.99629 14.90899 6381 ft 263 kts 305°
2026-05-08 09:02 46.00671 14.88749 6078 ft 261 kts 305°
2026-05-08 09:03 46.01705 14.86612 5787 ft 260 kts 305°
2026-05-08 09:03 46.02731 14.84488 5501 ft 258 kts 305°
2026-05-08 09:03 46.03761 14.82353 5210 ft 257 kts 305°
2026-05-08 09:03 46.04765 14.80271 5071 ft 247 kts 305°
2026-05-08 09:04 46.05718 14.78293 5023 ft 235 kts 305°
2026-05-08 09:04 46.06641 14.76379 4985 ft 236 kts 306°
2026-05-08 09:04 46.07595 14.74460 4926 ft 235 kts 307°
2026-05-08 09:04 46.08575 14.72574 4804 ft 235 kts 308°
2026-05-08 09:05 46.09565 14.70725 4665 ft 228 kts 309°
2026-05-08 09:05 46.10518 14.68950 4536 ft 219 kts 308°
2026-05-08 09:05 46.11441 14.67205 4369 ft 218 kts 308°
2026-05-08 09:05 46.12333 14.65475 4100 ft 212 kts 307°
2026-05-08 09:06 46.13185 14.63796 3867 ft 203 kts 308°
2026-05-08 09:06 46.13981 14.62220 3671 ft 190 kts 308°
2026-05-08 09:06 46.14742 14.60716 3412 ft 183 kts 308°
2026-05-08 09:06 46.15477 14.59263 3163 ft 175 kts 308°
2026-05-08 09:07 46.16173 14.57892 2918 ft 161 kts 308°
2026-05-08 09:07 46.16804 14.56636 2637 ft 151 kts 309°
2026-05-08 09:07 46.17421 14.55415 2440 ft 151 kts 308°
2026-05-08 09:07 46.18039 14.54200 2292 ft 151 kts 308°
2026-05-08 09:08 46.18648 14.52975 2094 ft 150 kts 308°
2026-05-08 09:08 46.19276 14.51757 1893 ft 149 kts 309°
2026-05-08 09:08 46.19898 14.50560 1675 ft 148 kts 308°
2026-05-08 09:08 46.20510 14.49364 1545 ft 148 kts 308°
2026-05-08 09:09 46.21125 14.48188 1342 ft 146 kts 309°
2026-05-08 09:09 46.21730 14.47008 1216 ft 144 kts 308°
2026-05-08 09:09 46.22263 14.45967 1229 ft 105 kts 306°
2026-05-08 09:09 46.22596 14.45318 1249 ft 55 kts 307°
2026-05-08 09:10 46.22755 14.45004 1257 ft 33 kts 307°
2026-05-08 09:10 46.22893 14.44735 1264 ft 34 kts 307°
2026-05-08 09:10 46.23040 14.44452 1272 ft 36 kts 306°
2026-05-08 09:10 46.23157 14.44220 1279 ft 25 kts 307°
2026-05-08 09:11 46.23263 14.44098 1283 ft 16 kts 356°
2026-05-08 09:11 46.23378 14.44118 1288 ft 16 kts 41°
2026-05-08 09:11 46.23375 14.44257 1290 ft 15 kts 126°
2026-05-08 09:11 46.23306 14.44392 1288 ft 18 kts 127°
2026-05-08 09:12 46.23224 14.44555 1283 ft 21 kts 127°
2026-05-08 09:12 46.23129 14.44737 1277 ft 24 kts 128°
2026-05-08 09:12 46.23024 14.44944 1271 ft 26 kts 127°
2026-05-08 09:12 46.22947 14.45094 1265 ft 13 kts 127°
2026-05-08 09:13 46.22881 14.45222 1260 ft 16 kts 127°
2026-05-08 09:13 46.22863 14.45339 1258 ft 11 kts 48°
2026-05-08 09:13 46.22924 14.45403 1262 ft 9 kts 27°
2026-05-08 09:13 46.22959 14.45429 1264 ft 4 kts 32°
2026-05-08 09:14 46.22980 14.45449 1265 ft 2 kts 37°
2026-05-08 09:14 46.22992 14.45461 1266 ft 1 kts 37°
2026-05-08 09:14 46.22996 14.45466 1266 ft 0 kts 36°